Year,Month,Day,Hour,Minute,Value (Times are PST for windspeed in km/hr)
2006,12,14,00,00,4.60
2006,12,14,00,01,2.40
2006,12,14,00,02,1.80
2006,12,14,00,03,1.40
2006,12,14,00,04,1.70
2006,12,14,00,05,2.30
2006,12,14,00,06,0.70
2006,12,14,00,07,0.00
2006,12,14,00,08,0.00
2006,12,14,00,09,1.50
2006,12,14,00,10,1.30
2006,12,14,00,11,0.60
2006,12,14,00,12,0.10
2006,12,14,00,13,0.30
2006,12,14,00,14,0.30
2006,12,14,00,15,1.40
2006,12,14,00,16,1.50
2006,12,14,00,17,1.30
2006,12,14,00,18,2.30
2006,12,14,00,19,1.70
2006,12,14,00,20,0.20
2006,12,14,00,21,0.10
2006,12,14,00,22,0.00
2006,12,14,00,23,0.00
2006,12,14,00,24,0.00
2006,12,14,00,25,0.00
2006,12,14,00,26,0.00
2006,12,14,00,27,0.00
2006,12,14,00,28,0.00
2006,12,14,00,29,0.60
2006,12,14,00,30,2.80
2006,12,14,00,31,3.20
2006,12,14,00,32,0.80
2006,12,14,00,33,0.00
2006,12,14,00,34,0.00
2006,12,14,00,35,0.00
2006,12,14,00,36,0.00
2006,12,14,00,37,0.00
2006,12,14,00,38,0.00
2006,12,14,00,39,0.00
2006,12,14,00,40,0.70
2006,12,14,00,41,1.50
2006,12,14,00,42,0.10
2006,12,14,00,43,0.00
2006,12,14,00,44,0.70
2006,12,14,00,45,1.20
2006,12,14,00,46,1.90
2006,12,14,00,47,2.20
2006,12,14,00,48,1.40
2006,12,14,00,49,1.90
2006,12,14,00,50,2.50
2006,12,14,00,51,1.80
2006,12,14,00,52,2.40
2006,12,14,00,53,2.20
2006,12,14,00,54,2.80
2006,12,14,00,55,2.80
2006,12,14,00,56,3.20
2006,12,14,00,57,3.20
2006,12,14,00,58,4.10
2006,12,14,00,59,3.90
2006,12,14,01,00,3.40
2006,12,14,01,01,3.20
2006,12,14,01,02,4.70
2006,12,14,01,03,3.30
2006,12,14,01,04,3.90
2006,12,14,01,05,4.60
2006,12,14,01,06,4.60
2006,12,14,01,07,6.20
2006,12,14,01,08,4.60
2006,12,14,01,09,2.50
2006,12,14,01,10,1.90
2006,12,14,01,11,3.30
2006,12,14,01,12,2.70
2006,12,14,01,13,3.70
2006,12,14,01,14,3.50
2006,12,14,01,15,3.30
2006,12,14,01,16,4.70
2006,12,14,01,17,2.60
2006,12,14,01,18,2.40
2006,12,14,01,19,2.30
2006,12,14,01,20,0.90
2006,12,14,01,21,2.30
2006,12,14,01,22,2.30
2006,12,14,01,23,2.70
2006,12,14,01,24,3.10
2006,12,14,01,25,3.00
2006,12,14,01,26,3.00
2006,12,14,01,27,1.00
2006,12,14,01,28,0.60
2006,12,14,01,29,0.50
2006,12,14,01,30,0.70
2006,12,14,01,31,0.70
2006,12,14,01,32,1.00
2006,12,14,01,33,0.90
2006,12,14,01,34,1.30
2006,12,14,01,35,1.80
2006,12,14,01,36,0.30
2006,12,14,01,37,1.70
2006,12,14,01,38,1.90
2006,12,14,01,39,2.30
2006,12,14,01,40,2.50
2006,12,14,01,41,1.70
2006,12,14,01,42,1.50
2006,12,14,01,43,2.00
2006,12,14,01,44,2.60
2006,12,14,01,45,3.70
2006,12,14,01,46,3.80
2006,12,14,01,47,3.70
2006,12,14,01,48,3.70
2006,12,14,01,49,3.00
2006,12,14,01,50,4.10
2006,12,14,01,51,2.80
2006,12,14,01,52,3.40
2006,12,14,01,53,3.30
2006,12,14,01,54,2.50
2006,12,14,01,55,3.10
2006,12,14,01,56,3.40
2006,12,14,01,57,4.60
2006,12,14,01,58,3.50
2006,12,14,01,59,2.80
2006,12,14,02,00,2.20
2006,12,14,02,01,1.20
2006,12,14,02,02,1.40
2006,12,14,02,03,0.20
2006,12,14,02,04,0.60
2006,12,14,02,05,0.70
2006,12,14,02,06,0.60
2006,12,14,02,07,1.20
2006,12,14,02,08,0.50
2006,12,14,02,09,1.60
2006,12,14,02,10,2.70
2006,12,14,02,11,3.10
2006,12,14,02,12,3.00
2006,12,14,02,13,2.90
2006,12,14,02,14,3.00
2006,12,14,02,15,3.80
2006,12,14,02,16,3.90
2006,12,14,02,17,3.60
2006,12,14,02,18,2.70
2006,12,14,02,19,1.70
2006,12,14,02,20,2.40
2006,12,14,02,21,2.10
2006,12,14,02,22,3.00
2006,12,14,02,23,3.20
2006,12,14,02,24,3.00
2006,12,14,02,25,3.00
2006,12,14,02,26,3.50
2006,12,14,02,27,4.80
2006,12,14,02,28,3.60
2006,12,14,02,29,2.70
2006,12,14,02,30,3.50
2006,12,14,02,31,3.50
2006,12,14,02,32,3.10
2006,12,14,02,33,3.20
2006,12,14,02,34,4.20
2006,12,14,02,35,4.70
2006,12,14,02,36,4.50
2006,12,14,02,37,4.70
2006,12,14,02,38,4.10
2006,12,14,02,39,5.30
2006,12,14,02,40,6.40
2006,12,14,02,41,4.90
2006,12,14,02,42,3.10
2006,12,14,02,43,2.80
2006,12,14,02,44,3.30
2006,12,14,02,45,4.10
2006,12,14,02,46,2.80
2006,12,14,02,47,5.10
2006,12,14,02,48,4.50
2006,12,14,02,49,4.70
2006,12,14,02,50,4.10
2006,12,14,02,51,2.30
2006,12,14,02,52,2.90
2006,12,14,02,53,3.00
2006,12,14,02,54,3.60
2006,12,14,02,55,4.80
2006,12,14,02,56,5.30
2006,12,14,02,57,5.60
2006,12,14,02,58,5.80
2006,12,14,02,59,4.90
2006,12,14,03,00,4.80
2006,12,14,03,01,4.70
2006,12,14,03,02,5.10
2006,12,14,03,03,4.60
2006,12,14,03,04,4.30
2006,12,14,03,05,2.70
2006,12,14,03,06,3.40
2006,12,14,03,07,2.70
2006,12,14,03,08,3.50
2006,12,14,03,09,3.30
2006,12,14,03,10,4.40
2006,12,14,03,11,4.00
2006,12,14,03,12,3.20
2006,12,14,03,13,2.90
2006,12,14,03,14,2.80
2006,12,14,03,15,2.60
2006,12,14,03,16,2.80
2006,12,14,03,17,2.60
2006,12,14,03,18,2.80
2006,12,14,03,19,1.30
2006,12,14,03,20,1.80
2006,12,14,03,21,3.30
2006,12,14,03,22,4.10
2006,12,14,03,23,4.30
2006,12,14,03,24,4.20
2006,12,14,03,25,5.60
2006,12,14,03,26,5.60
2006,12,14,03,27,5.30
2006,12,14,03,28,5.00
2006,12,14,03,29,4.50
2006,12,14,03,30,3.50
2006,12,14,03,31,4.30
2006,12,14,03,32,4.30
2006,12,14,03,33,3.50
2006,12,14,03,34,4.00
2006,12,14,03,35,3.00
2006,12,14,03,36,1.90
2006,12,14,03,37,1.30
2006,12,14,03,38,0.40
2006,12,14,03,39,0.20
2006,12,14,03,40,1.30
2006,12,14,03,41,2.30
2006,12,14,03,42,1.50
2006,12,14,03,43,0.80
2006,12,14,03,44,1.60
2006,12,14,03,45,1.90
2006,12,14,03,46,1.80
2006,12,14,03,47,2.70
2006,12,14,03,48,2.90
2006,12,14,03,49,3.00
2006,12,14,03,50,2.60
2006,12,14,03,51,1.40
2006,12,14,03,52,0.40
2006,12,14,03,53,0.80
2006,12,14,03,54,0.30
2006,12,14,03,55,0.40
2006,12,14,03,56,0.90
2006,12,14,03,57,1.10
2006,12,14,03,58,1.30
2006,12,14,03,59,1.60
2006,12,14,04,00,1.60
2006,12,14,04,01,1.30
2006,12,14,04,02,2.00
2006,12,14,04,03,1.50
2006,12,14,04,04,1.60
2006,12,14,04,05,1.20
2006,12,14,04,06,0.90
2006,12,14,04,07,0.70
2006,12,14,04,08,0.00
2006,12,14,04,09,0.50
2006,12,14,04,10,0.30
2006,12,14,04,11,2.50
2006,12,14,04,12,5.70
2006,12,14,04,13,5.80
2006,12,14,04,14,5.00
2006,12,14,04,15,6.10
2006,12,14,04,16,2.40
2006,12,14,04,17,4.30
2006,12,14,04,18,7.80
2006,12,14,04,19,4.30
2006,12,14,04,20,2.10
2006,12,14,04,21,0.40
2006,12,14,04,22,0.90
2006,12,14,04,23,1.20
2006,12,14,04,24,3.70
2006,12,14,04,25,2.80
2006,12,14,04,26,2.60
2006,12,14,04,27,3.30
2006,12,14,04,28,3.00
2006,12,14,04,29,7.10
2006,12,14,04,30,3.60
2006,12,14,04,31,4.90
2006,12,14,04,32,2.20
2006,12,14,04,33,4.80
2006,12,14,04,34,4.60
2006,12,14,04,35,2.50
2006,12,14,04,36,6.60
2006,12,14,04,37,6.70
2006,12,14,04,38,1.90
2006,12,14,04,39,3.00
2006,12,14,04,40,5.10
2006,12,14,04,41,1.80
2006,12,14,04,42,1.70
2006,12,14,04,43,1.90
2006,12,14,04,44,6.40
2006,12,14,04,45,4.70
2006,12,14,04,46,3.60
2006,12,14,04,47,6.00
2006,12,14,04,48,11.30
2006,12,14,04,49,14.40
2006,12,14,04,50,14.30
2006,12,14,04,51,11.60
2006,12,14,04,52,7.60
2006,12,14,04,53,10.80
2006,12,14,04,54,5.50
2006,12,14,04,55,4.40
2006,12,14,04,56,6.90
2006,12,14,04,57,3.50
2006,12,14,04,58,3.90
2006,12,14,04,59,3.50
2006,12,14,05,00,5.70
2006,12,14,05,01,6.80
2006,12,14,05,02,4.60
2006,12,14,05,03,6.80
2006,12,14,05,04,7.80
2006,12,14,05,05,6.30
2006,12,14,05,06,6.90
2006,12,14,05,07,8.90
2006,12,14,05,08,5.10
2006,12,14,05,09,7.50
2006,12,14,05,10,7.00
2006,12,14,05,11,4.70
2006,12,14,05,12,4.10
2006,12,14,05,13,4.50
2006,12,14,05,14,6.40
2006,12,14,05,15,5.70
2006,12,14,05,16,6.90
2006,12,14,05,17,5.60
2006,12,14,05,18,3.80
2006,12,14,05,19,1.70
2006,12,14,05,20,5.30
2006,12,14,05,21,5.30
2006,12,14,05,22,5.50
2006,12,14,05,23,7.90
2006,12,14,05,24,9.40
2006,12,14,05,25,8.10
2006,12,14,05,26,5.30
2006,12,14,05,27,4.70
2006,12,14,05,28,5.60
2006,12,14,05,29,3.50
2006,12,14,05,30,8.70
2006,12,14,05,31,6.20
2006,12,14,05,32,6.40
2006,12,14,05,33,5.40
2006,12,14,05,34,6.30
2006,12,14,05,35,4.10
2006,12,14,05,36,5.20
2006,12,14,05,37,4.10
2006,12,14,05,38,5.30
2006,12,14,05,39,5.30
2006,12,14,05,40,8.20
2006,12,14,05,41,11.70
2006,12,14,05,42,6.40
2006,12,14,05,43,8.00
2006,12,14,05,44,9.60
2006,12,14,05,45,10.50
2006,12,14,05,46,10.10
2006,12,14,05,47,12.30
2006,12,14,05,48,9.70
2006,12,14,05,49,10.60
2006,12,14,05,50,9.20
2006,12,14,05,51,10.70
2006,12,14,05,52,13.90
2006,12,14,05,53,13.10
2006,12,14,05,54,14.10
2006,12,14,05,55,12.80
2006,12,14,05,56,15.70
2006,12,14,05,57,13.00
2006,12,14,05,58,14.50
2006,12,14,05,59,10.30
2006,12,14,06,00,13.00
2006,12,14,06,01,9.10
2006,12,14,06,02,9.70
2006,12,14,06,03,16.30
2006,12,14,06,04,12.40
2006,12,14,06,05,12.00
2006,12,14,06,06,12.80
2006,12,14,06,07,13.80
2006,12,14,06,08,17.90
2006,12,14,06,09,13.00
2006,12,14,06,10,17.20
2006,12,14,06,11,19.90
2006,12,14,06,12,19.30
2006,12,14,06,13,13.10
2006,12,14,06,14,13.00
2006,12,14,06,15,13.40
2006,12,14,06,16,14.50
2006,12,14,06,17,19.00
2006,12,14,06,18,19.50
2006,12,14,06,19,17.30
2006,12,14,06,20,16.90
2006,12,14,06,21,12.30
2006,12,14,06,22,9.90
2006,12,14,06,23,8.40
2006,12,14,06,24,11.20
2006,12,14,06,25,10.10
2006,12,14,06,26,10.40
2006,12,14,06,27,9.00
2006,12,14,06,28,11.30
2006,12,14,06,29,6.90
2006,12,14,06,30,9.70
2006,12,14,06,31,10.00
2006,12,14,06,32,15.70
2006,12,14,06,33,9.60
2006,12,14,06,34,16.20
2006,12,14,06,35,10.00
2006,12,14,06,36,17.50
2006,12,14,06,37,12.20
2006,12,14,06,38,11.50
2006,12,14,06,39,13.50
2006,12,14,06,40,14.60
2006,12,14,06,41,17.40
2006,12,14,06,42,14.90
2006,12,14,06,43,14.80
2006,12,14,06,44,14.00
2006,12,14,06,45,14.20
2006,12,14,06,46,15.10
2006,12,14,06,47,18.20
2006,12,14,06,48,14.80
2006,12,14,06,49,13.80
2006,12,14,06,50,11.00
2006,12,14,06,51,10.70
2006,12,14,06,52,11.00
2006,12,14,06,53,11.90
2006,12,14,06,54,11.00
2006,12,14,06,55,10.50
2006,12,14,06,56,13.00
2006,12,14,06,57,11.50
2006,12,14,06,58,13.40
2006,12,14,06,59,12.50
2006,12,14,07,00,13.00
2006,12,14,07,01,12.90
2006,12,14,07,02,8.80
2006,12,14,07,03,9.90
2006,12,14,07,04,10.60
2006,12,14,07,05,11.20
2006,12,14,07,06,12.00
2006,12,14,07,07,10.70
2006,12,14,07,08,10.90
2006,12,14,07,09,12.10
2006,12,14,07,10,11.60
2006,12,14,07,11,9.70
2006,12,14,07,12,11.20
2006,12,14,07,13,9.00
2006,12,14,07,14,7.70
2006,12,14,07,15,8.20
2006,12,14,07,16,10.80
2006,12,14,07,17,13.80
2006,12,14,07,18,14.60
2006,12,14,07,19,12.40
2006,12,14,07,20,14.70
2006,12,14,07,21,17.70
2006,12,14,07,22,14.50
2006,12,14,07,23,15.60
2006,12,14,07,24,14.80
2006,12,14,07,25,14.00
2006,12,14,07,26,12.60
2006,12,14,07,27,13.20
2006,12,14,07,28,14.90
2006,12,14,07,29,17.10
2006,12,14,07,30,12.20
2006,12,14,07,31,8.10
2006,12,14,07,32,10.20
2006,12,14,07,33,7.70
2006,12,14,07,34,8.40
2006,12,14,07,35,9.30
2006,12,14,07,36,10.20
2006,12,14,07,37,11.00
2006,12,14,07,38,10.50
2006,12,14,07,39,13.00
2006,12,14,07,40,8.30
2006,12,14,07,41,12.30
2006,12,14,07,42,14.20
2006,12,14,07,43,10.60
2006,12,14,07,44,12.90
2006,12,14,07,45,21.40
2006,12,14,07,46,14.60
2006,12,14,07,47,7.90
2006,12,14,07,48,13.40
2006,12,14,07,49,15.40
2006,12,14,07,50,15.70
2006,12,14,07,51,15.60
2006,12,14,07,52,17.10
2006,12,14,07,53,13.60
2006,12,14,07,54,17.60
2006,12,14,07,55,14.60
2006,12,14,07,56,13.20
2006,12,14,07,57,12.60
2006,12,14,07,58,19.20
2006,12,14,07,59,13.80
2006,12,14,08,00,13.80
2006,12,14,08,01,13.90
2006,12,14,08,02,14.50
2006,12,14,08,03,11.70
2006,12,14,08,04,11.70
2006,12,14,08,05,10.70
2006,12,14,08,06,10.30
2006,12,14,08,07,15.30
2006,12,14,08,08,16.70
2006,12,14,08,09,16.00
2006,12,14,08,10,16.40
2006,12,14,08,11,14.20
2006,12,14,08,12,16.90
2006,12,14,08,13,14.10
2006,12,14,08,14,11.70
2006,12,14,08,15,15.40
2006,12,14,08,16,16.70
2006,12,14,08,17,13.70
2006,12,14,08,18,14.10
2006,12,14,08,19,8.10
2006,12,14,08,20,12.30
2006,12,14,08,21,9.70
2006,12,14,08,22,9.70
2006,12,14,08,23,6.90
2006,12,14,08,24,7.20
2006,12,14,08,25,8.80
2006,12,14,08,26,13.20
2006,12,14,08,27,14.10
2006,12,14,08,28,11.30
2006,12,14,08,29,10.80
2006,12,14,08,30,7.60
2006,12,14,08,31,12.10
2006,12,14,08,32,9.40
2006,12,14,08,33,8.50
2006,12,14,08,34,12.60
2006,12,14,08,35,12.50
2006,12,14,08,36,13.60
2006,12,14,08,37,8.40
2006,12,14,08,38,10.90
2006,12,14,08,39,15.50
2006,12,14,08,40,20.50
2006,12,14,08,41,13.10
2006,12,14,08,42,7.70
2006,12,14,08,43,13.00
2006,12,14,08,44,12.40
2006,12,14,08,45,15.90
2006,12,14,08,46,15.20
2006,12,14,08,47,17.70
2006,12,14,08,48,14.80
2006,12,14,08,49,13.30
2006,12,14,08,50,17.20
2006,12,14,08,51,12.70
2006,12,14,08,52,17.60
2006,12,14,08,53,13.10
2006,12,14,08,54,9.60
2006,12,14,08,55,14.60
2006,12,14,08,56,13.40
2006,12,14,08,57,11.60
2006,12,14,08,58,16.20
2006,12,14,08,59,9.30
2006,12,14,09,00,12.70
2006,12,14,09,01,11.80
2006,12,14,09,02,13.60
2006,12,14,09,03,16.00
2006,12,14,09,04,18.90
2006,12,14,09,05,14.20
2006,12,14,09,06,13.60
2006,12,14,09,07,11.80
2006,12,14,09,08,14.90
2006,12,14,09,09,13.30
2006,12,14,09,10,10.80
2006,12,14,09,11,16.00
2006,12,14,09,12,15.60
2006,12,14,09,13,13.90
2006,12,14,09,14,10.30
2006,12,14,09,15,12.40
2006,12,14,09,16,17.20
2006,12,14,09,17,20.20
2006,12,14,09,18,13.80
2006,12,14,09,19,9.80
2006,12,14,09,20,17.00
2006,12,14,09,21,19.10
2006,12,14,09,22,13.00
2006,12,14,09,23,9.90
2006,12,14,09,24,10.60
2006,12,14,09,25,7.40
2006,12,14,09,26,13.80
2006,12,14,09,27,15.40
2006,12,14,09,28,17.80
2006,12,14,09,29,10.90
2006,12,14,09,30,15.90
2006,12,14,09,31,19.20
2006,12,14,09,32,13.90
2006,12,14,09,33,15.80
2006,12,14,09,34,12.80
2006,12,14,09,35,18.70
2006,12,14,09,36,19.90
2006,12,14,09,37,20.40
2006,12,14,09,38,15.20
2006,12,14,09,39,16.70
2006,12,14,09,40,16.30
2006,12,14,09,41,20.20
2006,12,14,09,42,15.70
2006,12,14,09,43,19.20
2006,12,14,09,44,14.40
2006,12,14,09,45,16.80
2006,12,14,09,46,14.60
2006,12,14,09,47,14.10
2006,12,14,09,48,19.00
2006,12,14,09,49,17.80
2006,12,14,09,50,17.60
2006,12,14,09,51,16.30
2006,12,14,09,52,13.60
2006,12,14,09,53,17.10
2006,12,14,09,54,15.70
2006,12,14,09,55,10.90
2006,12,14,09,56,14.00
2006,12,14,09,57,17.60
2006,12,14,09,58,14.60
2006,12,14,09,59,16.90
2006,12,14,10,00,13.70
2006,12,14,10,01,15.70
2006,12,14,10,02,14.00
2006,12,14,10,03,14.20
2006,12,14,10,04,12.80
2006,12,14,10,05,11.30
2006,12,14,10,06,15.00
2006,12,14,10,07,14.20
2006,12,14,10,08,17.30
2006,12,14,10,09,11.60
2006,12,14,10,10,19.50
2006,12,14,10,11,16.70
2006,12,14,10,12,12.50
2006,12,14,10,13,14.20
2006,12,14,10,14,18.80
2006,12,14,10,15,12.40
2006,12,14,10,16,12.20
2006,12,14,10,17,12.50
2006,12,14,10,18,13.60
2006,12,14,10,19,8.70
2006,12,14,10,20,16.30
2006,12,14,10,21,19.80
2006,12,14,10,22,15.40
2006,12,14,10,23,16.30
2006,12,14,10,24,20.30
2006,12,14,10,25,18.10
2006,12,14,10,26,17.70
2006,12,14,10,27,14.10
2006,12,14,10,28,15.10
2006,12,14,10,29,16.80
2006,12,14,10,30,16.00
2006,12,14,10,31,17.10
2006,12,14,10,32,16.90
2006,12,14,10,33,16.00
2006,12,14,10,34,15.20
2006,12,14,10,35,16.00
2006,12,14,10,36,20.60
2006,12,14,10,37,18.30
2006,12,14,10,38,18.50
2006,12,14,10,39,18.90
2006,12,14,10,40,15.20
2006,12,14,10,41,17.80
2006,12,14,10,42,18.10
2006,12,14,10,43,19.30
2006,12,14,10,44,22.70
2006,12,14,10,45,18.40
2006,12,14,10,46,18.20
2006,12,14,10,47,20.10
2006,12,14,10,48,21.60
2006,12,14,10,49,21.60
2006,12,14,10,50,14.90
2006,12,14,10,51,13.80
2006,12,14,10,52,22.10
2006,12,14,10,53,19.20
2006,12,14,10,54,18.90
2006,12,14,10,55,14.70
2006,12,14,10,56,15.70
2006,12,14,10,57,14.00
2006,12,14,10,58,9.70
2006,12,14,10,59,11.40
2006,12,14,11,00,12.00
2006,12,14,11,01,14.10
2006,12,14,11,02,12.90
2006,12,14,11,03,15.50
2006,12,14,11,04,12.90
2006,12,14,11,05,13.70
2006,12,14,11,06,16.30
2006,12,14,11,07,13.60
2006,12,14,11,08,17.50
2006,12,14,11,09,18.40
2006,12,14,11,10,20.00
2006,12,14,11,11,18.70
2006,12,14,11,12,16.80
2006,12,14,11,13,19.20
2006,12,14,11,14,18.20
2006,12,14,11,15,15.00
2006,12,14,11,16,15.00
2006,12,14,11,17,10.80
2006,12,14,11,18,10.50
2006,12,14,11,19,9.20
2006,12,14,11,20,10.30
2006,12,14,11,21,20.20
2006,12,14,11,22,17.80
2006,12,14,11,23,12.30
2006,12,14,11,24,14.00
2006,12,14,11,25,17.80
2006,12,14,11,26,17.70
2006,12,14,11,27,16.30
2006,12,14,11,28,15.90
2006,12,14,11,29,20.00
2006,12,14,11,30,19.70
2006,12,14,11,31,15.70
2006,12,14,11,32,14.10
2006,12,14,11,33,12.90
2006,12,14,11,34,16.20
2006,12,14,11,35,19.50
2006,12,14,11,36,25.20
2006,12,14,11,37,19.20
2006,12,14,11,38,20.50
2006,12,14,11,39,20.80
2006,12,14,11,40,18.10
2006,12,14,11,41,15.80
2006,12,14,11,42,14.80
2006,12,14,11,43,15.50
2006,12,14,11,44,13.10
2006,12,14,11,45,20.10
2006,12,14,11,46,18.60
2006,12,14,11,47,18.10
2006,12,14,11,48,17.50
2006,12,14,11,49,15.30
2006,12,14,11,50,15.70
2006,12,14,11,51,15.90
2006,12,14,11,52,12.60
2006,12,14,11,53,16.40
2006,12,14,11,54,10.20
2006,12,14,11,55,13.80
2006,12,14,11,56,13.10
2006,12,14,11,57,13.90
2006,12,14,11,58,13.90
2006,12,14,11,59,14.50
2006,12,14,12,00,16.40
2006,12,14,12,01,19.60
2006,12,14,12,02,18.60
2006,12,14,12,03,15.80
2006,12,14,12,04,9.20
2006,12,14,12,05,12.30
2006,12,14,12,06,12.60
2006,12,14,12,07,17.50
2006,12,14,12,08,10.80
2006,12,14,12,09,10.10
2006,12,14,12,10,11.40
2006,12,14,12,11,10.70
2006,12,14,12,12,14.20
2006,12,14,12,13,17.00
2006,12,14,12,14,17.50
2006,12,14,12,15,17.50
2006,12,14,12,16,15.80
2006,12,14,12,17,13.10
2006,12,14,12,18,17.60
2006,12,14,12,19,18.00
2006,12,14,12,20,23.90
2006,12,14,12,21,21.10
2006,12,14,12,22,17.20
2006,12,14,12,23,21.70
2006,12,14,12,24,18.20
2006,12,14,12,25,16.30
2006,12,14,12,26,16.20
2006,12,14,12,27,17.50
2006,12,14,12,28,13.30
2006,12,14,12,29,16.90
2006,12,14,12,30,10.40
2006,12,14,12,31,13.20
2006,12,14,12,32,9.20
2006,12,14,12,33,8.10
2006,12,14,12,34,15.90
2006,12,14,12,35,14.50
2006,12,14,12,36,15.80
2006,12,14,12,37,11.50
2006,12,14,12,38,10.00
2006,12,14,12,39,16.10
2006,12,14,12,40,10.40
2006,12,14,12,41,15.20
2006,12,14,12,42,9.90
2006,12,14,12,43,16.60
2006,12,14,12,44,14.90
2006,12,14,12,45,11.70
2006,12,14,12,46,14.60
2006,12,14,12,47,15.20
2006,12,14,12,48,10.70
2006,12,14,12,49,10.60
2006,12,14,12,50,14.20
2006,12,14,12,51,18.70
2006,12,14,12,52,16.60
2006,12,14,12,53,9.30
2006,12,14,12,54,14.10
2006,12,14,12,55,11.90
2006,12,14,12,56,10.00
2006,12,14,12,57,10.70
2006,12,14,12,58,13.10
2006,12,14,12,59,10.20
2006,12,14,13,00,10.90
2006,12,14,13,01,12.30
2006,12,14,13,02,15.20
2006,12,14,13,03,12.20
2006,12,14,13,04,12.60
2006,12,14,13,05,7.20
2006,12,14,13,06,11.40
2006,12,14,13,07,13.40
2006,12,14,13,08,14.50
2006,12,14,13,09,11.00
2006,12,14,13,10,10.30
2006,12,14,13,11,7.70
2006,12,14,13,12,7.70
2006,12,14,13,13,8.60
2006,12,14,13,14,10.50
2006,12,14,13,15,8.60
2006,12,14,13,16,6.90
2006,12,14,13,17,8.40
2006,12,14,13,18,8.70
2006,12,14,13,19,10.30
2006,12,14,13,20,9.50
2006,12,14,13,21,11.10
2006,12,14,13,22,8.50
2006,12,14,13,23,8.20
2006,12,14,13,24,8.60
2006,12,14,13,25,11.30
2006,12,14,13,26,14.10
2006,12,14,13,27,12.50
2006,12,14,13,28,12.30
2006,12,14,13,29,11.60
2006,12,14,13,30,9.20
2006,12,14,13,31,3.00
2006,12,14,13,32,7.70
2006,12,14,13,33,8.00
2006,12,14,13,34,5.30
2006,12,14,13,35,7.50
2006,12,14,13,36,8.20
2006,12,14,13,37,9.30
2006,12,14,13,38,8.90
2006,12,14,13,39,8.20
2006,12,14,13,40,7.60
2006,12,14,13,41,6.40
2006,12,14,13,42,6.70
2006,12,14,13,43,10.60
2006,12,14,13,44,9.30
2006,12,14,13,45,8.60
2006,12,14,13,46,13.60
2006,12,14,13,47,17.00
2006,12,14,13,48,18.20
2006,12,14,13,49,15.90
2006,12,14,13,50,14.20
2006,12,14,13,51,11.40
2006,12,14,13,52,10.80
2006,12,14,13,53,6.50
2006,12,14,13,54,7.20
2006,12,14,13,55,8.50
2006,12,14,13,56,6.20
2006,12,14,13,57,5.10
2006,12,14,13,58,3.20
2006,12,14,13,59,2.30
2006,12,14,14,00,0.20
2006,12,14,14,01,1.30
2006,12,14,14,02,0.20
2006,12,14,14,03,0.00
2006,12,14,14,04,1.50
2006,12,14,14,05,3.60
2006,12,14,14,06,4.80
2006,12,14,14,07,5.10
2006,12,14,14,08,4.30
2006,12,14,14,09,4.60
2006,12,14,14,10,6.70
2006,12,14,14,11,4.20
2006,12,14,14,12,1.60
2006,12,14,14,13,0.00
2006,12,14,14,14,0.10
2006,12,14,14,15,1.10
2006,12,14,14,16,0.90
2006,12,14,14,17,2.20
2006,12,14,14,18,2.30
2006,12,14,14,19,5.20
2006,12,14,14,20,9.60
2006,12,14,14,21,12.60
2006,12,14,14,22,8.90
2006,12,14,14,23,6.00
2006,12,14,14,24,3.50
2006,12,14,14,25,4.90
2006,12,14,14,26,4.70
2006,12,14,14,27,8.10
2006,12,14,14,28,4.60
2006,12,14,14,29,9.20
2006,12,14,14,30,6.80
2006,12,14,14,31,5.00
2006,12,14,14,32,7.50
2006,12,14,14,33,15.70
2006,12,14,14,34,11.60
2006,12,14,14,35,14.80
2006,12,14,14,36,15.90
2006,12,14,14,37,19.30
2006,12,14,14,38,11.80
2006,12,14,14,39,9.70
2006,12,14,14,40,8.80
2006,12,14,14,41,8.80
2006,12,14,14,42,9.60
2006,12,14,14,43,13.40
2006,12,14,14,44,11.00
2006,12,14,14,45,9.00
2006,12,14,14,46,10.90
2006,12,14,14,47,7.30
2006,12,14,14,48,10.30
2006,12,14,14,49,11.30
2006,12,14,14,50,18.70
2006,12,14,14,51,11.90
2006,12,14,14,52,9.70
2006,12,14,14,53,8.20
2006,12,14,14,54,12.00
2006,12,14,14,55,7.90
2006,12,14,14,56,11.80
2006,12,14,14,57,9.20
2006,12,14,14,58,7.20
2006,12,14,14,59,10.20
2006,12,14,15,00,14.20
2006,12,14,15,01,13.40
2006,12,14,15,02,11.00
2006,12,14,15,03,10.80
2006,12,14,15,04,10.50
2006,12,14,15,05,9.80
2006,12,14,15,06,8.90
2006,12,14,15,07,6.00
2006,12,14,15,08,4.70
2006,12,14,15,09,2.00
2006,12,14,15,10,8.40
2006,12,14,15,11,9.40
2006,12,14,15,12,8.10
2006,12,14,15,13,8.10
2006,12,14,15,14,14.60
2006,12,14,15,15,11.30
2006,12,14,15,16,14.60
2006,12,14,15,17,14.30
2006,12,14,15,18,11.30
2006,12,14,15,19,13.30
2006,12,14,15,20,16.70
2006,12,14,15,21,12.20
2006,12,14,15,22,14.70
2006,12,14,15,23,15.90
2006,12,14,15,24,19.00
2006,12,14,15,25,13.60
2006,12,14,15,26,12.10
2006,12,14,15,27,8.60
2006,12,14,15,28,11.90
2006,12,14,15,29,13.00
2006,12,14,15,30,13.50
2006,12,14,15,31,12.70
2006,12,14,15,32,19.80
2006,12,14,15,33,15.60
2006,12,14,15,34,11.40
2006,12,14,15,35,12.00
2006,12,14,15,36,10.10
2006,12,14,15,37,10.10
2006,12,14,15,38,9.50
2006,12,14,15,39,5.00
2006,12,14,15,40,8.80
2006,12,14,15,41,6.90
2006,12,14,15,42,8.80
2006,12,14,15,43,9.10
2006,12,14,15,44,13.00
2006,12,14,15,45,14.10
2006,12,14,15,46,11.70
2006,12,14,15,47,10.40
2006,12,14,15,48,7.20
2006,12,14,15,49,6.00
2006,12,14,15,50,7.00
2006,12,14,15,51,8.60
2006,12,14,15,52,7.60
2006,12,14,15,53,11.00
2006,12,14,15,54,8.80
2006,12,14,15,55,7.40
2006,12,14,15,56,9.90
2006,12,14,15,57,5.10
2006,12,14,15,58,7.20
2006,12,14,15,59,6.40
2006,12,14,16,00,3.90
2006,12,14,16,01,3.90
2006,12,14,16,02,5.10
2006,12,14,16,03,3.30
2006,12,14,16,04,4.20
2006,12,14,16,05,6.40
2006,12,14,16,06,8.40
2006,12,14,16,07,8.10
2006,12,14,16,08,8.90
2006,12,14,16,09,11.40
2006,12,14,16,10,12.70
2006,12,14,16,11,9.70
2006,12,14,16,12,8.80
2006,12,14,16,13,8.90
2006,12,14,16,14,7.30
2006,12,14,16,15,7.10
2006,12,14,16,16,6.70
2006,12,14,16,17,2.00
2006,12,14,16,18,1.50
2006,12,14,16,19,0.90
2006,12,14,16,20,1.20
2006,12,14,16,21,5.20
2006,12,14,16,22,3.30
2006,12,14,16,23,5.90
2006,12,14,16,24,8.10
2006,12,14,16,25,9.30
2006,12,14,16,26,8.50
2006,12,14,16,27,12.40
2006,12,14,16,28,14.60
2006,12,14,16,29,12.70
2006,12,14,16,30,10.20
2006,12,14,16,31,11.40
2006,12,14,16,32,9.60
2006,12,14,16,33,8.50
2006,12,14,16,34,10.00
2006,12,14,16,35,8.70
2006,12,14,16,36,7.70
2006,12,14,16,37,7.50
2006,12,14,16,38,5.60
2006,12,14,16,39,7.20
2006,12,14,16,40,5.60
2006,12,14,16,41,9.70
2006,12,14,16,42,7.90
2006,12,14,16,43,8.00
2006,12,14,16,44,6.90
2006,12,14,16,45,4.60
2006,12,14,16,46,3.60
2006,12,14,16,47,7.60
2006,12,14,16,48,9.30
2006,12,14,16,49,10.40
2006,12,14,16,50,6.10
2006,12,14,16,51,15.50
2006,12,14,16,52,11.20
2006,12,14,16,53,9.20
2006,12,14,16,54,11.70
2006,12,14,16,55,8.00
2006,12,14,16,56,7.30
2006,12,14,16,57,10.00
2006,12,14,16,58,9.20
2006,12,14,16,59,8.90
2006,12,14,17,00,10.50
2006,12,14,17,01,14.20
2006,12,14,17,02,15.80
2006,12,14,17,03,8.70
2006,12,14,17,04,8.50
2006,12,14,17,05,8.90
2006,12,14,17,06,8.90
2006,12,14,17,07,6.30
2006,12,14,17,08,9.90
2006,12,14,17,09,8.60
2006,12,14,17,10,6.40
2006,12,14,17,11,9.50
2006,12,14,17,12,10.10
2006,12,14,17,13,6.80
2006,12,14,17,14,7.60
2006,12,14,17,15,8.50
2006,12,14,17,16,8.00
2006,12,14,17,17,3.10
2006,12,14,17,18,6.70
2006,12,14,17,19,5.60
2006,12,14,17,20,4.80
2006,12,14,17,21,3.10
2006,12,14,17,22,4.60
2006,12,14,17,23,6.90
2006,12,14,17,24,4.10
2006,12,14,17,25,10.50
2006,12,14,17,26,6.10
2006,12,14,17,27,4.70
2006,12,14,17,28,4.60
2006,12,14,17,29,6.40
2006,12,14,17,30,6.50
2006,12,14,17,31,6.00
2006,12,14,17,32,6.60
2006,12,14,17,33,6.20
2006,12,14,17,34,3.50
2006,12,14,17,35,4.40
2006,12,14,17,36,6.30
2006,12,14,17,37,7.70
2006,12,14,17,38,8.00
2006,12,14,17,39,9.20
2006,12,14,17,40,7.20
2006,12,14,17,41,7.20
2006,12,14,17,42,8.10
2006,12,14,17,43,10.80
2006,12,14,17,44,9.50